Location: Unspecified
(0.0000°N, 0.0000°E)
Time: 01:29:01
(UTC+00:00)

Vanguard 2 - Pass Details

Date: 25 November 2019
Orbit: 553 x 2938 km, 32.9° (Epoch: 10 December)

Event Time Altitude Azimuth Distance (km) Brightness Sun altitude
Rises 14:37:16 0° 304° (NW) 2,839 10.7 43.5°
Reaches altitude 10° 14:39:35 10° 303° (WNW) 1,850 9.9 43.0°
Maximum altitude 14:43:34 85° 214° (SW) 557 7.7 42.1°
Drops below altitude 10° 14:47:49 10° 126° (SE) 1,975 9.5 41.2°
Sets 14:50:22 0° 126° (SE) 3,055 10.4 40.6°
